Cloud_Cover
55 37 64 43 87 86 100 53 5 5 5 0 0 0 0 0 1 0 0 0 0 2 4 0 0 0 0 5 28 7 16 84 100 100 100 100 100 100 100 100 100 100 100
100 100 100 100 91 100 100 10 5 0 5 0 0 0 0 0 0 0 1 5 5 5 5 4 2 0 0 0 62 92 28 94 100 100 100 100 100 100 100 100 100 100 100
100 99 100 100 100 60 3 4 4 0 0 5 4 0 3 2 0 0 0 0 4 5 5 5 5 5 1 0 0 20 96 100 95 100 100 100 100 100 100 100 100 100 100
5 5 5 5 5 5 4 5 2 0 0 0 0 1 4 4 0 0 3 4 3 0 5 5 5 5 4 0 0 0 5 35 100 100 99 100 100 100 100 100 100 100 100
11 72 35 16 47 5 5 5 2 0 0 0 0 0 0 0 0 0 0 3 4 1 0 2 5 5 5 5 5 4 0 4 5 22 100 100 100 100 97 100 100 100 100
74 98 88 74 6 5 4 0 0 0 0 0 1 5 5 5 5 5 5 5 5 5 5 5 5 5 2 3 5 5 5 4 3 5 6 77 100 100 100 93 74 100 100
99 43 5 5 5 5 3 0 0 0 0 0 0 0 5 5 5 5 5 5 11 8 6 5 59 14 5 0 0 5 5 5 3 0 5 5 14 100 100 100 100 100 100
5 5 5 4 1 0 5 5 5 5 5 5 4 0 1 5 5 5 5 5 21 30 14 5 5 8 96 87 10 1 4 3 4 5 0 2 5 5 81 100 100 100 100
2 2 4 4 4 6 26 5 22 29 12 4 2 0 9 6 6 4 3 0 0 0 0 0 2 5 5 19 98 66 76 3 0 2 4 0 3 5 5 62 100 100 100
5 9 59 14 81 100 98 100 99 19 5 13 1 0 2 18 55 24 5 1 0 0 0 0 0 0 1 3 1 15 72 78 5 3 5 4 4 5 3 5 52 100 100
100 100 17 100 100 100 37 75 0 3 2 5 77 100 100 84 100 95 99 60 8 3 0 0 0 0 0 2 5 0 11 90 97 56 6 5 2 10 4 2 3 67 100
5 14 7 28 22 5 13 0 0 0 0 0 0 5 60 93 99 100 100 100 100 100 91 8 0 0 1 4 5 5 4 2 12 100 79 86 65 100 7 5 4 1 61
5 5 5 5 5 5 4 5 3 2 0 0 0 15 1 5 19 60 100 95 100 31 28 13 19 14 5 2 0 4 5 5 3 34 100 100 99 100 96 86 17 2 0
4 5 6 23 50 45 96 60 96 91 5 65 94 1 0 0 5 5 98 100 98 89 12 18 74 100 93 29 5 0 5 5 5 5 92 100 100 100 100 100 87 5 5
10 98 98 99 100 100 100 100 84 9 50 14 94 100 53 0 0 1 3 32 98 68 7 5 95 100 100 100 87 5 5 5 4 5 5 93 98 100 100 100 100 100 100
68 24 6 73 99 100 100 100 79 57 100 49 7 40 4 0 5 5 5 5 31 12 45 5 5 95 100 100 100 62 5 5 5 1 5 68 100 100 100 100 100 100 99
89 100 96 99 100 100 100 100 99 100 100 22 18 6 18 5 4 5 5 3 3 5 5 2 0 8 20 100 100 100 13 5 5 5 3 8 100 100 100 100 100 100 100
98 100 94 83 100 100 100 100 99 100 99 5 5 72 53 5 5 5 5 0 0 1 5 5 3 4 5 5 100 100 90 12 5 0 5 24 100 100 100 100 100 100 100
0 26 59 29 98 100 100 81 64 83 40 9 92 88 5 5 4 0 0 3 5 16 85 97 20 5 5 5 4 21 74 99 6 5 5 28 100 100 100 100 100 100 100
68 68 68 99 100 100 97 6 4 89 10 5 5 5 5 5 5 2 5 5 75 100 100 100 69 40 33 37 5 3 3 4 89 5 30 28 100 100 100 100 100 100 100
100 26 10 71 100 47 97 5 97 6 5 5 5 5 5 5 53 31 64 82 100 87 89 100 100 100 99 56 5 20 5 4 36 5 90 88 100 100 100 100 100 100 100
5 86 41 95 6 98 11 99 5 5 5 16 66 80 5 5 5 71 85 99 100 100 100 100 76 100 100 78 50 5 5 5 5 7 5 100 58 100 100 100 100 100 100
14 21 5 6 61 90 37 9 34 5 6 61 74 29 11 53 51 34 71 100 100 100 100 100 100 100 100 100 95 27 5 5 5 5 5 97 96 100 100 100 100 100 100
18 10 25 99 100 23 5 5 40 5 5 5 5 5 63 81 94 100 100 100 100 100 100 100 100 100 32 44 80 5 5 5 33 22 8 98 61 100 100 69 100 100 100
93 58 98 100 16 5 3 8 51 52 5 5 62 5 98 100 95 100 100 100 100 100 96 79 63 99 100 100 98 87 96 100 100 98 68 76 53 69 100 41 34 83 96
99 99 69 34 5 5 2 7 77 44 40 77 9 5 55 100 100 100 100 100 100 100 97 94 76 5 28 5 37 86 13 14 66 64 11 97 43 25 72 8 6 88 100